Retour au catalogue

FENGYUN 1C DEB

LostPO
NORAD 37915·DEBRIS·🇨🇳 China

Lancé May 10, 1999 depuis Taiyuan Satellite Launch Center

Loading…

Prochains Passages (prochaines 24 heures)

TLE

PériméSource: Space-Track

Époque: Jan 12, 2024, 09:15 UTC

1 37915U 99025ENQ 24012.38597811  .00002754  00000-0  19526-2 0  9994
2 37915  98.2953  63.4836 0210021  74.6933 287.7333 13.88358584770270

Suivez FENGYUN 1C DEB en temps réel avec AllMySat

Download on the App Store